When you browse on this site, cookies collect data to enhance your experience and personalize the content and advertising you see.
Visit our Privacy Policy to learn more. By continuing to use the site, you agree to this use of cookies and data.
  • In United Kingdom
  • List of Countries
  • For 7 days
  • Water Temperature
  • Satellite Maps
  • Weather Map
  • Weather Widgets
  • user-avatar
    Login

    Hourly Weather Abergele

    Today, 16 July, Tuesday

    Time Temperature Precipitation Wind Pressure Humidity
    00:00 +15°C° 0 mm 2 mps 758 mmHg 93%
    01:00 +15°C° 0 mm 2 mps 757 mmHg 92%
    02:00 +14°C° 0 mm 2 mps 757 mmHg 92%
    03:00 +14°C° 0 mm 2 mps 757 mmHg 91%
    04:00 +15°C° 0 mm 2 mps 757 mmHg 90%
    05:00 +15°C° 0 mm 2 mps 757 mmHg 89%
    06:00 +16°C° 0 mm 2 mps 757 mmHg 88%
    07:00 +18°C° 0 mm 2 mps 757 mmHg 80%
    08:00 +19°C° 0 mm 2 mps 757 mmHg 73%
    09:00 +21°C° 0 mm 2 mps 757 mmHg 65%
    10:00 +21°C° 0.1 mm 2 mps 757 mmHg 65%
    11:00 +21°C° 0.1 mm 3 mps 756 mmHg 65%
    12:00 +21°C° 0.1 mm 3 mps 756 mmHg 64%
    13:00 +21°C° 0.1 mm 3 mps 756 mmHg 66%
    14:00 +21°C° 0.1 mm 3 mps 756 mmHg 67%
    15:00 +21°C° 0.1 mm 3 mps 756 mmHg 68%
    16:00 +21°C° 0 mm 3 mps 755 mmHg 70%
    17:00 +20°C° 0 mm 3 mps 755 mmHg 73%
    18:00 +20°C° 0 mm 3 mps 755 mmHg 75%
    19:00 +18°C° 0 mm 3 mps 755 mmHg 80%
    20:00 +16°C° 0 mm 3 mps 755 mmHg 84%
    21:00 +13°C° 0 mm 3 mps 755 mmHg 89%
    22:00 +13°C° 0 mm 3 mps 755 mmHg 88%
    23:00 +12°C° 0 mm 3 mps 755 mmHg 88%

    Tomorrow, 17 July, Wednesday

    Time Temperature Precipitation Wind Pressure Humidity
    00:00 +12°C° 0 mm 3 mps 755 mmHg 88%
    01:00 +12°C° 0 mm 3 mps 754 mmHg 89%
    02:00 +12°C° 0 mm 3 mps 754 mmHg 91%
    03:00 +12°C° 0 mm 3 mps 754 mmHg 92%
    04:00 +13°C° 0 mm 3 mps 753 mmHg 90%
    05:00 +13°C° 0 mm 3 mps 753 mmHg 89%
    06:00 +14°C° 0 mm 3 mps 753 mmHg 87%
    07:00 +16°C° 0 mm 3 mps 753 mmHg 81%
    08:00 +18°C° 0 mm 3 mps 753 mmHg 76%
    09:00 +19°C° 0 mm 3 mps 753 mmHg 70%
    10:00 +19°C° 0 mm 3 mps 752 mmHg 68%
    11:00 +20°C° 0 mm 4 mps 752 mmHg 66%
    12:00 +20°C° 0 mm 4 mps 752 mmHg 63%
    13:00 +19°C° 0.1 mm 4 mps 751 mmHg 68%
    14:00 +18°C° 0.1 mm 4 mps 751 mmHg 73%
    15:00 +17°C° 0.1 mm 4 mps 751 mmHg 77%
    16:00 +18°C° 0.4 mm 4 mps 750 mmHg 80%
    17:00 +17°C° 0.4 mm 4 mps 750 mmHg 87%
    18:00 +16°C° 0.4 mm 3 mps 750 mmHg 95%
    19:00 +14°C° 0.1 mm 3 mps 750 mmHg 95%
    20:00 +14°C° 0.1 mm 3 mps 749 mmHg 96%
    21:00 +14°C° 0.1 mm 3 mps 749 mmHg 96%
    22:00 +16°C° 0.2 mm 3 mps 749 mmHg 96%
    23:00 +16°C° 0.2 mm 3 mps 749 mmHg 97%

    Day after tomorrow, 18 July, Thursday

    Time Temperature Precipitation Wind Pressure Humidity
    00:00 +16°C° 0.2 mm 3 mps 748 mmHg 97%
    01:00 +16°C° 0.2 mm 3 mps 748 mmHg 97%
    02:00 +16°C° 0.2 mm 3 mps 748 mmHg 97%
    03:00 +16°C° 0.2 mm 3 mps 748 mmHg 98%
    04:00 +16°C° 0.1 mm 3 mps 748 mmHg 97%
    05:00 +14°C° 0.1 mm 4 mps 748 mmHg 97%
    06:00 +14°C° 0.1 mm 4 mps 748 mmHg 96%
    07:00 +14°C° 0 mm 4 mps 748 mmHg 92%
    08:00 +14°C° 0 mm 4 mps 748 mmHg 87%
    09:00 +15°C° 0 mm 4 mps 748 mmHg 82%
    10:00 +16°C° 0 mm 5 mps 748 mmHg 76%
    11:00 +16°C° 0 mm 5 mps 748 mmHg 70%
    12:00 +17°C° 0 mm 5 mps 748 mmHg 64%
    13:00 +17°C° 0.1 mm 5 mps 748 mmHg 63%
    14:00 +19°C° 0.1 mm 6 mps 748 mmHg 62%
    15:00 +19°C° 0.1 mm 6 mps 748 mmHg 62%
    16:00 +17°C° 0.1 mm 5 mps 748 mmHg 65%
    17:00 +17°C° 0.1 mm 5 mps 748 mmHg 68%
    18:00 +16°C° 0.1 mm 5 mps 749 mmHg 71%
    19:00 +15°C° 0 mm 5 mps 749 mmHg 77%
    20:00 +14°C° 0 mm 5 mps 749 mmHg 83%
    21:00 +12°C° 0 mm 5 mps 750 mmHg 89%
    22:00 +12°C° 0 mm 5 mps 750 mmHg 91%
    23:00 +12°C° 0 mm 4 mps 750 mmHg 92%

    19 July, Friday

    Time Temperature Precipitation Wind Pressure Humidity
    00:00 +11°C° 0 mm 4 mps 750 mmHg 94%
    01:00 +11°C° 0 mm 4 mps 750 mmHg 95%
    02:00 +11°C° 0 mm 4 mps 750 mmHg 95%
    03:00 +10°C° 0 mm 3 mps 750 mmHg 96%
    04:00 +11°C° 0 mm 3 mps 751 mmHg 95%
    05:00 +11°C° 0 mm 3 mps 751 mmHg 94%
    06:00 +12°C° 0 mm 3 mps 751 mmHg 93%
    07:00 +14°C° 0 mm 2 mps 751 mmHg 84%
    08:00 +16°C° 0 mm 2 mps 751 mmHg 76%
    09:00 +17°C° 0 mm 2 mps 751 mmHg 68%
    10:00 +18°C° 0.1 mm 2 mps 751 mmHg 66%
    11:00 +18°C° 0.1 mm 3 mps 751 mmHg 64%
    12:00 +19°C° 0.1 mm 3 mps 751 mmHg 62%
    13:00 +17°C° 0.4 mm 2 mps 750 mmHg 73%
    14:00 +16°C° 0.4 mm 2 mps 750 mmHg 83%
    15:00 +15°C° 0.4 mm 1 mps 750 mmHg 93%
    16:00 +13°C° 1 mm 3 mps 749 mmHg 94%
    17:00 +13°C° 1 mm 4 mps 749 mmHg 95%
    18:00 +12°C° 1 mm 5 mps 749 mmHg 97%
    19:00 +13°C° 1 mm 5 mps 748 mmHg 96%
    20:00 +14°C° 1 mm 5 mps 748 mmHg 96%
    21:00 +14°C° 1 mm 5 mps 748 mmHg 96%
    22:00 +14°C° 0.2 mm 5 mps 748 mmHg 96%
    23:00 +15°C° 0.2 mm 4 mps 747 mmHg 95%

    20 July, Saturday

    Time Temperature Precipitation Wind Pressure Humidity
    00:00 +15°C° 0.2 mm 4 mps 747 mmHg 95%
    01:00 +15°C° 0.2 mm 4 mps 747 mmHg 95%
    02:00 +16°C° 0.2 mm 3 mps 747 mmHg 95%
    03:00 +16°C° 0.2 mm 3 mps 747 mmHg 95%
    04:00 +15°C° 0.5 mm 4 mps 748 mmHg 95%
    05:00 +14°C° 0.5 mm 5 mps 748 mmHg 96%
    06:00 +13°C° 0.5 mm 5 mps 748 mmHg 97%
    07:00 +14°C° 0 mm 5 mps 749 mmHg 94%
    08:00 +14°C° 0 mm 5 mps 750 mmHg 91%
    09:00 +14°C° 0 mm 5 mps 750 mmHg 89%
    10:00 +15°C° 0 mm 5 mps 751 mmHg 81%
    11:00 +17°C° 0 mm 5 mps 751 mmHg 73%
    12:00 +19°C° 0 mm 5 mps 752 mmHg 66%
    13:00 +19°C° 0 mm 5 mps 752 mmHg 65%
    14:00 +19°C° 0 mm 5 mps 752 mmHg 64%
    15:00 +20°C° 0 mm 4 mps 753 mmHg 64%
    16:00 +19°C° 0 mm 4 mps 753 mmHg 66%
    17:00 +19°C° 0 mm 4 mps 753 mmHg 68%
    18:00 +19°C° 0 mm 3 mps 754 mmHg 71%
    19:00 +17°C° 0 mm 3 mps 754 mmHg 78%
    20:00 +14°C° 0 mm 3 mps 755 mmHg 86%
    21:00 +14°C° 0 mm 2 mps 755 mmHg 93%
    22:00 +13°C° 0 mm 2 mps 755 mmHg 93%
    23:00 +13°C° 0 mm 2 mps 756 mmHg 92%

    21 July, Sunday

    Time Temperature Precipitation Wind Pressure Humidity
    00:00 +11°C° 0 mm 3 mps 756 mmHg 92%
    01:00 +11°C° 0 mm 3 mps 756 mmHg 91%
    02:00 +12°C° 0 mm 2 mps 756 mmHg 91%
    03:00 +12°C° 0 mm 2 mps 756 mmHg 91%
    04:00 +13°C° 0 mm 2 mps 756 mmHg 88%
    05:00 +13°C° 0 mm 2 mps 756 mmHg 86%
    06:00 +14°C° 0 mm 2 mps 756 mmHg 83%
    07:00 +16°C° 0 mm 2 mps 756 mmHg 76%
    08:00 +18°C° 0 mm 2 mps 757 mmHg 68%
    09:00 +20°C° 0 mm 2 mps 757 mmHg 60%
    10:00 +21°C° 0 mm 2 mps 757 mmHg 59%
    11:00 +23°C° 0 mm 1 mps 757 mmHg 58%
    12:00 +25°C° 0 mm 1 mps 757 mmHg 57%
    13:00 +24°C° 0 mm 1 mps 757 mmHg 59%
    14:00 +24°C° 0 mm 1 mps 757 mmHg 62%
    15:00 +23°C° 0 mm 1 mps 757 mmHg 64%
    16:00 +23°C° 0 mm 1 mps 757 mmHg 66%
    17:00 +22°C° 0 mm 1 mps 757 mmHg 68%
    18:00 +22°C° 0 mm 1 mps 757 mmHg 70%
    19:00 +20°C° 0 mm 1 mps 757 mmHg 76%
    20:00 +19°C° 0 mm 1 mps 757 mmHg 82%
    21:00 +16°C° 0 mm 1 mps 757 mmHg 88%
    22:00 +16°C° 0 mm 1 mps 757 mmHg 86%
    23:00 +16°C° 0 mm 2 mps 757 mmHg 83%
    Show more